Tracking 19153 objects as of 26-Apr-2018
HD Live streaming from Space Station
objects crossing your sky now

FENGYUN 1C DEB

Track FENGYUN 1C DEB now!
10-day predictions


NORAD ID: 30152
Int'l Code: 1999-025TH
Perigee: 821.3 km
Apogee: 1,096.9 km
Inclination: 99.1 °
Period: 104.1 minutes
Semi major axis: 7330 km
RCS: 0.042 m2 (small)
Launch date: May 10, 1999
Source: People's Republic of China (PRC)
Launch site: Taiyaun Space Center, China (TSC)

Note: This is SATELLITE DEBRIS
aabbcc
Your satellite tracking list
Your tracking list is empty




NASA's NSSDC Master Catalog

Two Line Element Set (TLE):
1 30152U 99025TH  18116.19328892  .00000672  00000-0  56688-3 0  9996
2 30152  99.1273   6.3203 0187984  44.5789 317.0313 13.83362291567387
Source of the keplerian elements: AFSPC